Wind_Speed
18 18 18 19 19 20 20 21 21 22 22 22 22 23 23 23 23 24 25 25 26 26 27 27 28 29 29 30 31 32 32 33 34 34 35 36 36 36
19 20 20 21 21 21 22 22 22 23 24 24 24 25 25 26 26 27 27 27 27 28 29 30 30 31 31 32 32 34 35 36 36 37 37 37 37 37
19 20 21 22 22 22 23 23 24 24 25 26 26 27 27 27 27 28 29 30 30 30 31 31 32 33 34 34 35 36 37 37 37 37 37 37 38 38
20 20 22 22 23 23 23 24 25 26 26 26 27 28 28 29 30 30 31 30 31 32 33 33 34 34 34 35 36 37 36 36 37 38 38 38 39 39
21 21 22 22 23 24 25 26 27 27 27 28 29 29 30 31 32 33 33 33 33 34 34 34 35 34 35 36 36 37 37 37 38 38 39 39 40 41
21 22 23 24 24 25 26 27 28 28 29 30 30 31 31 32 33 33 34 33 34 34 34 34 34 35 36 37 37 38 38 39 39 40 40 41 41 42
23 24 25 26 27 28 28 29 29 30 31 30 31 32 32 31 32 33 33 33 33 34 34 35 36 36 37 37 38 38 39 40 40 41 41 41 42 42
24 25 26 28 29 30 30 30 31 31 31 31 31 31 31 31 31 32 33 33 33 34 35 35 36 37 37 38 38 38 39 39 39 40 41 41 42 43
25 27 27 28 30 30 30 30 30 30 31 31 31 30 30 31 32 32 33 33 34 35 35 35 36 36 37 37 38 39 39 39 40 40 41 41 42 43
26 27 28 28 28 29 29 29 29 30 30 30 30 30 31 31 32 32 33 34 34 35 35 36 36 36 36 37 38 38 39 39 40 40 40 40 41 41
26 27 27 28 28 28 28 28 29 30 30 30 30 30 31 31 32 32 33 34 34 34 34 35 36 37 37 38 38 38 38 38 39 39 39 40 40 40
27 28 28 29 29 29 29 29 29 29 29 29 30 31 31 32 32 32 33 33 34 34 35 35 37 37 38 38 38 38 38 38 38 38 39 39 39 39
29 29 30 29 29 29 29 30 30 30 30 31 31 31 31 32 32 33 33 34 35 35 35 36 37 37 37 37 37 37 37 37 37 38 38 38 38 38
29 30 30 31 31 31 31 31 32 32 32 31 31 32 32 32 32 32 33 34 35 35 35 36 36 37 37 36 36 36 36 36 37 38 38 37 37 36
30 30 31 31 31 31 31 32 32 32 32 32 32 33 33 32 33 33 33 34 34 34 34 35 35 36 35 35 36 36 36 36 37 36 36 36 36 36
32 32 32 31 31 31 32 32 32 32 32 32 32 32 33 33 34 34 33 33 34 34 34 34 35 35 35 35 35 35 35 35 35 36 36 35 35 35
33 33 33 32 32 32 32 33 32 32 32 32 32 32 33 33 33 33 33 33 33 34 34 34 34 33 33 33 33 34 34 35 35 35 34 34 33 33
34 34 33 33 33 33 33 33 33 33 33 33 33 32 32 33 33 34 34 34 34 34 33 33 33 33 32 32 33 33 34 33 33 33 33 33 32 32
35 35 35 34 33 33 33 33 33 33 34 33 32 32 33 34 34 34 33 33 32 32 32 32 32 32 32 33 33 33 33 33 33 33 32 32 31 31
35 36 35 34 33 34 34 34 34 34 33 34 34 33 33 34 34 33 33 32 32 32 32 32 31 32 32 32 33 33 33 33 33 32 31 30 30 30
35 35 34 33 32 33 33 33 33 33 33 33 33 33 33 33 33 32 31 31 32 32 32 32 32 32 32 32 32 32 32 32 32 31 30 30 30 30
34 33 33 32 32 32 32 32 32 32 32 32 32 33 33 32 32 32 31 32 32 31 31 31 31 31 31 31 32 32 31 31 30 29 29 29 29 29
32 33 33 33 33 33 33 32 32 32 32 32 33 33 33 32 32 32 32 32 31 31 30 30 30 30 31 31 31 30 30 30 29 29 28 28 29 29
Wind_Direction
263 265 266 266 267 269 269 269 270 271 271 272 275 276 275 275 275 276 278 279 279 281 283 285 288 288 289 290 289 290 291 291 290 290 290 291 289 288
265 265 266 267 268 270 270 271 271 272 272 273 274 275 275 274 275 276 278 280 281 283 285 286 287 288 289 290 291 291 291 291 291 291 291 291 290 289
267 268 268 268 269 270 271 271 273 273 273 274 275 275 274 275 276 277 279 280 281 283 285 286 287 287 288 289 290 291 292 292 291 291 292 292 292 292
267 269 270 270 270 271 273 273 274 276 276 275 275 276 275 276 277 279 280 281 282 284 284 285 286 288 289 290 291 292 292 292 292 292 292 293 293 293
270 271 271 272 272 273 274 275 276 278 279 278 276 276 276 276 278 280 281 281 282 283 284 286 287 288 290 291 292 293 293 293 293 293 293 293 294 294
273 273 273 275 276 277 277 278 278 279 279 279 278 277 277 278 278 280 280 280 282 284 288 289 290 290 291 293 293 294 294 294 294 295 295 294 295 296
273 275 275 276 278 278 279 280 279 278 279 279 279 278 278 278 278 279 281 284 286 288 289 290 291 292 293 294 294 294 295 296 296 297 297 297 297 296
275 277 279 279 278 278 279 279 280 280 280 280 280 280 280 280 280 281 283 285 287 287 289 291 292 293 293 294 294 294 295 296 297 298 298 299 300 300
278 280 281 282 282 281 280 279 279 280 281 280 281 282 282 281 281 282 282 284 287 288 289 291 293 294 294 294 294 296 298 299 300 300 300 300 300 300
279 280 281 284 284 284 284 283 283 283 283 283 283 283 282 283 282 282 284 286 289 290 291 292 294 295 296 296 297 298 299 300 301 302 302 303 303 302
281 281 282 283 285 285 284 285 285 284 283 283 284 284 284 284 285 284 285 288 290 291 292 294 295 296 296 298 298 299 300 301 302 302 303 303 303 302
281 281 281 283 283 284 285 284 284 284 283 283 283 284 284 284 285 286 288 290 291 292 293 294 295 296 297 298 298 299 300 301 302 303 303 303 302 303
281 282 281 282 284 284 285 284 284 285 285 285 284 284 284 286 286 286 288 291 292 294 294 295 296 297 298 299 300 300 301 302 302 303 303 303 304 305
283 282 282 282 282 283 283 284 285 286 286 285 284 284 286 287 287 288 291 292 293 293 294 295 296 297 298 300 300 301 302 303 303 304 304 305 305 305
284 284 284 283 281 282 283 285 286 286 287 287 287 286 287 287 288 289 291 292 292 294 295 295 296 298 298 300 301 301 302 303 304 305 306 305 305 305
284 284 284 284 282 282 283 284 285 286 286 287 288 288 288 288 289 290 291 293 294 295 295 296 297 298 299 300 301 302 303 304 305 306 305 305 306 307
283 284 283 282 281 281 282 283 284 284 285 286 287 288 289 289 290 290 291 292 294 294 295 296 298 299 299 301 302 303 304 305 306 306 306 306 306 307
282 282 282 280 280 281 281 282 282 283 284 285 286 288 289 289 290 291 292 292 294 295 297 297 298 299 301 302 303 304 305 305 306 307 306 307 307 308
280 281 281 281 281 281 281 282 283 284 286 286 286 288 289 289 290 292 293 294 295 296 296 297 298 299 301 303 304 304 305 305 306 306 306 307 308 308
280 280 279 280 281 281 281 282 283 283 284 285 286 287 288 289 291 292 293 293 295 296 297 298 298 299 301 302 304 305 305 306 305 306 306 307 308 308
278 279 279 280 281 281 281 283 284 284 286 287 287 287 288 290 291 292 292 293 295 296 297 298 298 299 299 301 302 304 304 305 305 306 306 306 308 309
278 279 279 279 279 280 282 282 282 283 285 286 286 287 288 289 291 292 291 292 294 295 297 297 298 298 300 301 303 303 304 304 304 305 306 307 308 310
278 278 278 278 279 280 281 281 281 282 284 286 287 287 289 290 291 292 292 291 292 293 296 298 299 300 300 301 302 302 303 304 305 306 306 307 308 310
Height
5896 5896 5896 5896 5896 5896 5896 5895 5895 5894 5894 5893 5893 5892 5891 5890 5889 5888 5887 5886 5885 5883 5882 5880 5878 5877 5875 5873 5871 5869 5867 5864 5862 5860 5857 5855 5852 5850
5892 5892 5892 5892 5892 5891 5891 5890 5890 5889 5888 5888 5887 5886 5885 5884 5883 5882 5881 5880 5878 5877 5875 5873 5871 5870 5868 5865 5863 5861 5859 5856 5854 5851 5848 5846 5843 5840
5887 5887 5887 5887 5886 5886 5886 5885 5885 5884 5883 5882 5881 5880 5879 5878 5877 5875 5874 5873 5871 5870 5868 5866 5864 5862 5860 5858 5855 5853 5850 5847 5844 5842 5839 5836 5833 5831
5882 5882 5882 5881 5881 5881 5880 5880 5879 5878 5877 5876 5875 5873 5872 5871 5870 5869 5867 5866 5864 5862 5860 5858 5856 5854 5851 5849 5846 5844 5841 5838 5835 5832 5829 5826 5824 5820
5877 5877 5876 5876 5875 5875 5874 5873 5872 5871 5870 5869 5868 5866 5865 5864 5863 5861 5860 5858 5856 5854 5852 5850 5848 5845 5843 5840 5837 5834 5832 5829 5826 5823 5819 5816 5813 5810
5872 5871 5870 5870 5869 5868 5867 5867 5866 5864 5863 5862 5861 5859 5858 5857 5855 5854 5852 5850 5848 5846 5844 5842 5839 5836 5834 5831 5828 5825 5822 5819 5816 5813 5809 5806 5802 5799
5866 5865 5864 5864 5863 5862 5861 5860 5858 5857 5856 5854 5853 5852 5850 5849 5847 5846 5844 5842 5840 5838 5836 5833 5831 5828 5825 5822 5819 5816 5812 5809 5806 5802 5799 5795 5791 5787
5860 5859 5858 5857 5856 5855 5854 5852 5851 5850 5848 5847 5845 5844 5842 5841 5839 5838 5836 5834 5832 5830 5827 5825 5822 5819 5816 5813 5809 5806 5802 5799 5795 5792 5788 5784 5780 5776
5854 5852 5851 5850 5849 5847 5846 5845 5843 5842 5841 5839 5838 5836 5835 5833 5831 5830 5828 5826 5824 5821 5818 5815 5812 5809 5806 5803 5799 5796 5792 5789 5785 5781 5777 5773 5768 5764
5847 5846 5845 5843 5841 5840 5839 5837 5836 5835 5833 5832 5830 5829 5827 5825 5823 5821 5819 5817 5815 5812 5809 5806 5803 5800 5796 5793 5789 5785 5782 5778 5774 5770 5766 5761 5757 5752
5840 5839 5837 5835 5834 5833 5831 5830 5829 5827 5826 5824 5822 5820 5819 5817 5815 5813 5811 5808 5806 5803 5800 5797 5793 5790 5786 5783 5779 5775 5771 5767 5763 5759 5755 5750 5746 5741
5833 5831 5829 5828 5827 5825 5824 5822 5821 5819 5818 5816 5814 5812 5810 5808 5806 5804 5802 5799 5797 5794 5790 5787 5784 5780 5777 5773 5769 5765 5761 5757 5753 5749 5744 5740 5735 5731
5826 5824 5822 5821 5819 5818 5816 5814 5813 5811 5809 5807 5805 5803 5801 5799 5797 5795 5792 5790 5787 5784 5781 5777 5774 5770 5767 5763 5759 5755 5751 5747 5743 5738 5734 5729 5725 5720
5817 5815 5814 5812 5811 5809 5808 5806 5804 5803 5801 5798 5796 5794 5792 5790 5788 5786 5783 5780 5777 5774 5771 5768 5764 5760 5757 5753 5749 5745 5741 5737 5732 5728 5724 5719 5715 5710
5809 5807 5805 5803 5802 5800 5799 5797 5796 5794 5792 5790 5788 5786 5784 5781 5779 5776 5773 5771 5768 5764 5761 5758 5754 5751 5747 5743 5739 5736 5732 5727 5723 5718 5714 5709 5705 5701
5800 5798 5796 5794 5793 5792 5790 5788 5787 5785 5783 5781 5779 5777 5774 5772 5770 5767 5764 5761 5758 5755 5752 5748 5745 5741 5737 5734 5730 5726 5722 5718 5714 5709 5705 5700 5695 5691
5791 5789 5787 5786 5784 5782 5781 5779 5777 5776 5774 5772 5770 5768 5765 5763 5760 5757 5754 5751 5748 5745 5742 5738 5735 5731 5728 5724 5721 5717 5713 5709 5704 5700 5696 5691 5687 5682
5782 5780 5778 5776 5775 5773 5772 5770 5768 5766 5764 5762 5760 5758 5756 5753 5750 5747 5744 5742 5738 5735 5732 5729 5725 5722 5719 5715 5712 5708 5704 5700 5696 5691 5687 5683 5679 5674
5772 5770 5768 5767 5765 5763 5762 5760 5759 5757 5755 5752 5750 5748 5746 5743 5741 5738 5735 5732 5729 5726 5723 5720 5716 5713 5710 5707 5703 5699 5695 5691 5687 5683 5679 5675 5670 5666
5762 5760 5758 5757 5755 5753 5752 5750 5749 5747 5745 5743 5740 5738 5736 5733 5731 5728 5725 5723 5720 5717 5714 5711 5707 5704 5701 5698 5694 5691 5687 5683 5679 5674 5671 5667 5663 5659
5751 5750 5748 5747 5745 5744 5742 5740 5739 5737 5735 5733 5731 5729 5726 5724 5721 5718 5716 5713 5710 5707 5705 5702 5699 5695 5692 5689 5686 5682 5678 5675 5671 5667 5663 5659 5655 5651
5741 5740 5738 5737 5736 5734 5733 5731 5729 5727 5726 5723 5721 5719 5716 5714 5711 5709 5706 5704 5701 5698 5695 5692 5689 5686 5683 5680 5677 5673 5670 5667 5663 5659 5655 5652 5648 5644
5731 5730 5728 5727 5726 5724 5722 5721 5719 5717 5715 5714 5711 5709 5706 5704 5702 5699 5697 5694 5691 5689 5686 5683 5680 5677 5674 5671 5668 5665 5662 5658 5655 5651 5648 5645 5641 5637